Location: Pinhead Observatory
(34.4473°N, 118.1985°W)
Time: 07:16:18
(UTC-07:00)

CZ-4C R/B - Visible Passes

Search period start: 05 May 2016 00:00
Search period end: 15 May 2016 00:00
Orbit: 745 x 1257 km, 63.4° (Epoch: 03 May)

Date Brightness Start Highest point End Pass type
(mag) Time Alt. Az. Time Alt. Az. Time Alt. Az.
05 May 4.5 04:18:45 10° SE 04:21:48 16° ESE 04:24:59 10° ENE visible
06 May 3.1 04:49:53 10° S 04:54:47 43° ESE 05:00:08 10° NE visible
07 May 4.6 03:38:52 10° SE 03:40:37 12° ESE 03:42:24 10° E visible
07 May 2.2 05:22:55 10° SW 05:28:08 71° WNW 05:33:56 10° NNE visible
08 May 3.4 04:09:44 14° S 04:13:31 34° ESE 04:18:32 10° NE visible
09 May 2.1 04:42:40 17° SSW 04:46:46 90° NW 04:52:34 10° NNE visible
10 May 3.7 03:30:19 21° SE 03:32:17 26° ESE 03:36:51 10° NE visible
10 May 3.0 05:15:35 10° WSW 05:20:28 37° NW 05:25:52 10° NNE visible
11 May 2.2 04:03:06 34° SSW 04:05:26 71° ESE 04:11:10 10° NE visible
12 May 3.9 02:50:39 20° ESE 02:51:04 20° ESE 02:55:01 10° ENE visible
12 May 2.6 04:35:50 22° WSW 04:39:00 46° NW 04:44:37 10° NNE visible
13 May 2.4 03:23:19 50° SSE 03:24:07 55° ESE 03:29:42 10° NE visible
13 May 3.8 05:09:01 10° W 05:13:03 21° NW 05:17:25 10° N visible
14 May 4.3 02:10:46 15° E 02:10:46 15° E 02:12:56 10° ENE visible
14 May 2.3 03:55:57 41° WSW 03:57:34 58° NW 04:03:20 10° NNE visible
